Regional Weather Roundup
Issued by NWS

Home | Current Version | Previous Version | Text Only | Print | Product List | Glossary Off
Versions: 1 2 3 4 5 6 7 8 9 10 11 12 13 14 15 16 17 18 19 20 21 22 23 24 25 26 27 28 29 30 31 32 33 34 35 36 37 38 39 40 41 42 43 44 45 46 47 48 49 50

000
ASUS45 KCYS 310010
RWRWY

WYOMING REGIONAL WEATHER ROUNDUP
NATIONAL WEATHER SERVICE CHEYENNE WY
600 PM MDT WED JUL 30 2014

NOTE:  "FAIR" INDICATES FEW OR NO CLOUDS BELOW 12,000 FEET
WITH NO SIGNIFICANT WEATHER AND/OR OBSTRUCTIONS TO VISIBILITY.

WYZ001-310100-
YELLOWSTONE NATIONAL PARK

CITY           SKY/WX    TMP DP  RH WIND       PRES   REMARKS
LK YELLOWSTONE   N/A     68  34  28 CALM      30.43F
6HR MIN TEMP:  64; 6HR MAX TEMP:  71;

W YELLOWSTONE  NOT AVBL

$$
WYZ002>013-054>058-071-098>099-310100-
NORTHERN WYOMING

CITY           SKY/WX    TMP DP  RH WIND       PRES   REMARKS
JACKSON        SUNNY     73  46  38 SW14      30.33S
CODY           NOT AVBL
GREYBULL       PTSUNNY   85  38  18 CALM      30.16F
6HR MIN TEMP:  76; 6HR MAX TEMP:  86;

WORLAND        CLOUDY    83  44  25 N3        30.19F
6HR MIN TEMP:  73; 6HR MAX TEMP:  84;

SHERIDAN       MOSUNNY   83  39  21 NE5       30.19F
6HR MIN TEMP:  81; 6HR MAX TEMP:  88;

BUFFALO        MOSUNNY   82  31  15 E8        30.27F
6HR MIN TEMP:  78; 6HR MAX TEMP:  84;

GILLETTE       MOSUNNY   81  35  19 NE7       30.22S
6HR MIN TEMP:  78; 6HR MAX TEMP:  83;

HULETT         FAIR      79  41  25 MISG      30.23
NEWCASTLE      FAIR      79  36  21 N9        30.20

$$
WYZ014>020-022>026-101>103-310100-
CENTRAL WYOMING

CITY           SKY/WX    TMP DP  RH WIND       PRES   REMARKS
BIG PINEY      CLOUDY    58  50  75 NW15      30.42F
6HR MIN TEMP:  54; 6HR MAX TEMP:  58; 6HR PCP:  0.06;

PINEDALE       CLOUDY    59  46  63 NW7       30.43S
DUBOIS         FAIR      68  34  28 SE14      30.40F
LANDER         CLOUDY    73  42  32 NW6       30.29F
6HR MIN TEMP:  65; 6HR MAX TEMP:  73;

RIVERTON       CLOUDY    74  41  30 NE8       30.30F
6HR MIN TEMP:  69; 6HR MAX TEMP:  76;

CASPER         PTSUNNY   77  41  27 SE9       30.27S
6HR MIN TEMP:  70; 6HR MAX TEMP:  80; 6HR PCP: TRACE;

DOUGLAS        MOSUNNY   78  45  30 S8        30.26F
6HR MIN TEMP:  70; 6HR MAX TEMP:  79;


$$
WYZ021-027>030-104>119-310100-
SOUTHERN WYOMING

CITY           SKY/WX    TMP DP  RH WIND       PRES   REMARKS
EVANSTON       CLOUDY    61  53  75 E12G22    30.39S
6HR MIN TEMP:  57; 6HR MAX TEMP:  62; 6HR PCP:  0.02;

KEMMERER       CLOUDY   N/A N/A N/A NE7       30.43S
FORT BRIDGER   CLOUDY    60  56  86 NE12      30.42F
ROCK SPRINGS   CLOUDY    61  50  67 E18G29    30.38S
6HR MIN TEMP:  58; 6HR MAX TEMP:  62; 6HR PCP:  0.12;

DIXON          CLOUDY    68  52  57 N6        30.32S
RAWLINS        CLOUDY    63  49  60 E9        30.37F
6HR MIN TEMP:  61; 6HR MAX TEMP:  66; 6HR PCP: TRACE;

SARATOGA       CLOUDY    61  50  67 E3        30.38S
LARAMIE        CLOUDY    57  50  77 SE7       30.40F
6HR MIN TEMP:  55; 6HR MAX TEMP:  59; 6HR PCP:  0.13;

CHEYENNE       CLOUDY    60  54  80 SW5       30.36F
6HR MIN TEMP:  57; 6HR MAX TEMP:  61; 6HR PCP:  0.04;

TORRINGTON     PTSUNNY   74  53  48 SW8       30.22F
6HR MIN TEMP:  70; 6HR MAX TEMP:  78;

PINE BLUFFS    FAIR      63  55  77 SW10      30.33S

$$


USA.gov is the U.S. government's official web portal to all federal, state and local government web resources and services.